| time (UTC) | temp F | wind direction | speed knots | gust knots | rain 1hr in | rain 24hr in | rain mn in | humidity % | barometer mb |
| 20260506090504 | 51 | 215 | 1.7 | 4.3 | 0.00 | 0.00 | 0.00 | 52 | 1021.8 |
| 20260506090003 | 51 | 220 | 1.7 | 2.6 | 0.00 | 0.00 | 0.00 | 52 | 1022.0 |
| 20260506085504 | 51 | 217 | 0.9 | 2.6 | 0.00 | 0.00 | 0.00 | 53 | 1022.0 |
| 20260506085003 | 50 | 208 | 0.0 | 1.7 | 0.00 | 0.00 | 0.00 | 53 | 1022.0 |
| 20260506084003 | 50 | 206 | 1.7 | 4.3 | 0.00 | 0.00 | 0.00 | 53 | 1022.0 |
| 20260506083503 | 49 | 202 | 2.6 | 4.3 | 0.00 | 0.00 | 0.00 | 55 | 1022.1 |
| 20260506083004 | 49 | 203 | 1.7 | 2.6 | 0.00 | 0.00 | 0.00 | 56 | 1021.8 |
| 20260506082004 | 48 | 206 | 0.0 | 1.7 | 0.00 | 0.00 | 0.00 | 58 | 1021.8 |
| 20260506081503 | 47 | 206 | 1.7 | 2.6 | 0.00 | 0.00 | 0.00 | 60 | 1021.8 |
| 20260506081004 | 47 | 227 | 0.0 | 1.7 | 0.00 | 0.00 | 0.00 | 61 | 1021.7 |
| 20260506080503 | 47 | 246 | 0.0 | 0.0 | 0.00 | 0.00 | 0.00 | 58 | 1021.8 |
| 20260506073503 | 51 | 247 | 0.0 | 0.0 | 0.00 | 0.00 | 0.00 | 54 | 1022.1 |
| 20260506073004 | 52 | 247 | 0.0 | 0.9 | 0.00 | 0.00 | 0.00 | 52 | 1021.9 |
| 20260506072503 | 53 | 246 | 0.0 | 1.7 | 0.00 | 0.00 | 0.00 | 52 | 1021.9 |
| 20260506072003 | 54 | 258 | 0.0 | 0.0 | 0.00 | 0.00 | 0.00 | 51 | 1022.0 |
| 20260506071504 | 54 | 258 | 0.0 | 2.6 | 0.00 | 0.00 | 0.00 | 52 | 1021.9 |
| 20260506070504 | 54 | 241 | 1.7 | 2.6 | 0.00 | 0.00 | 0.00 | 54 | 1021.8 |
| 20260506062503 | 54 | 329 | 2.6 | 4.3 | 0.00 | 0.00 | 0.00 | 56 | 1021.5 |
| 20260506061004 | 53 | 239 | 0.0 | 0.9 | 0.00 | 0.00 | 0.00 | 56 | 1021.3 |
| 20260506060503 | 53 | 239 | 0.0 | 0.0 | 0.00 | 0.00 | 0.00 | 54 | 1021.3 |
| 20260506051003 | 56 | 299 | 0.9 | 5.2 | 0.00 | 0.00 | 0.00 | 51 | 1020.6 |
| 20260506050503 | 57 | 304 | 0.9 | 4.3 | 0.00 | 0.00 | 0.00 | 51 | 1020.6 |
| 20260506044504 | 55 | 242 | 0.0 | 1.7 | 0.00 | 0.00 | 0.00 | 53 | 1020.5 |
| 20260506044003 | 55 | 204 | 0.9 | 2.6 | 0.00 | 0.00 | 0.00 | 52 | 1020.4 |
| 20260506043503 | 55 | 206 | 1.7 | 6.1 | 0.00 | 0.00 | 0.00 | 52 | 1020.3 |
| 20260506042004 | 56 | 184 | 0.9 | 2.6 | 0.00 | 0.00 | 0.00 | 51 | 1020.2 |
| 20260506041503 | 56 | 176 | 0.0 | 0.0 | 0.00 | 0.00 | 0.00 | 50 | 1020.1 |
| 20260506041003 | 57 | 176 | 0.0 | 1.7 | 0.00 | 0.00 | 0.00 | 50 | 1020.1 |
| 20260506040004 | 59 | 285 | 0.0 | 1.7 | 0.00 | 0.00 | 0.00 | 48 | 1020.0 |
| 20260506035503 | 59 | 292 | 2.6 | 7.8 | 0.00 | 0.00 | 0.00 | 48 | 1019.9 |
| 20260506035004 | 59 | 316 | 2.6 | 5.2 | 0.00 | 0.00 | 0.00 | 47 | 1019.7 |
| 20260506034004 | 59 | 322 | 5.2 | 8.7 | 0.00 | 0.00 | 0.00 | 47 | 1019.5 |
| 20260506033503 | 59 | 320 | 4.3 | 10.4 | 0.00 | 0.00 | 0.00 | 47 | 1019.4 |
| 20260506033005 | 59 | 304 | 3.5 | 7.8 | 0.00 | 0.00 | 0.00 | 47 | 1019.3 |
| 20260506032503 | 59 | 308 | 5.2 | 8.7 | 0.00 | 0.00 | 0.00 | 46 | 1019.3 |
| 20260506032003 | 60 | 318 | 5.2 | 10.4 | 0.00 | 0.00 | 0.00 | 46 | 1019.2 |
| 20260506031503 | 60 | 315 | 7.8 | 10.4 | 0.00 | 0.00 | 0.00 | 46 | 1019.2 |
| 20260506031003 | 60 | 316 | 5.2 | 8.7 | 0.00 | 0.00 | 0.00 | 46 | 1019.2 |
| 20260506030503 | 60 | 322 | 5.2 | 10.4 | 0.00 | 0.00 | 0.00 | 45 | 1019.1 |
| 20260506030004 | 60 | 322 | 4.3 | 10.4 | 0.00 | 0.00 | 0.00 | 44 | 1019.1 |
| 20260506025503 | 60 | 319 | 6.1 | 10.4 | 0.00 | 0.00 | 0.00 | 44 | 1019.1 |
| 20260506025004 | 60 | 331 | 2.6 | 10.4 | 0.00 | 0.00 | 0.00 | 42 | 1019.0 |
| 20260506024503 | 61 | 307 | 4.3 | 10.4 | 0.00 | 0.00 | 0.00 | 42 | 1019.0 |
| 20260506024004 | 61 | 328 | 6.1 | 10.4 | 0.00 | 0.00 | 0.00 | 42 | 1019.0 |
| 20260506023504 | 61 | 324 | 7.8 | 10.4 | 0.00 | 0.00 | 0.00 | 41 | 1019.0 |
| 20260506023003 | 61 | 321 | 4.3 | 8.7 | 0.00 | 0.00 | 0.00 | 41 | 1018.7 |
| 20260506022504 | 61 | 340 | 6.1 | 10.4 | 0.00 | 0.00 | 0.00 | 39 | 1018.7 |
| 20260506022004 | 62 | 319 | 5.2 | 10.4 | 0.00 | 0.00 | 0.00 | 39 | 1018.7 |
| 20260506021505 | 62 | 320 | 7.8 | 11.3 | 0.00 | 0.00 | 0.00 | 38 | 1018.5 |
| 20260506021003 | 63 | 347 | 5.2 | 8.7 | 0.00 | 0.00 | 0.00 | 36 | 1018.3 |
| 20260506015503 | 63 | 351 | 7.8 | 11.3 | 0.00 | 0.00 | 0.00 | 35 | 1018.2 |
| 20260506015004 | 64 | 320 | 6.1 | 10.4 | 0.00 | 0.00 | 0.00 | 35 | 1018.3 |
| 20260506014003 | 64 | 336 | 5.2 | 10.4 | 0.00 | 0.00 | 0.00 | 34 | 1018.1 |
| 20260506013503 | 64 | 351 | 7.8 | 12.2 | 0.00 | 0.00 | 0.00 | 34 | 1018.1 |
| 20260506013003 | 65 | 327 | 5.2 | 10.4 | 0.00 | 0.00 | 0.00 | 32 | 1018.1 |
| 20260506012503 | 65 | 328 | 5.2 | 10.4 | 0.00 | 0.00 | 0.00 | 33 | 1018.1 |
| 20260506012004 | 65 | 320 | 6.1 | 10.4 | 0.00 | 0.00 | 0.00 | 33 | 1018.0 |
| 20260506011504 | 65 | 306 | 4.3 | 11.3 | 0.00 | 0.00 | 0.00 | 33 | 1018.1 |
| 20260506011004 | 65 | 301 | 7.0 | 10.4 | 0.00 | 0.00 | 0.00 | 34 | 1018.1 |
| 20260506010504 | 64 | 349 | 4.3 | 8.7 | 0.00 | 0.00 | 0.00 | 35 | 1018.2 |
| 20260506010004 | 63 | 239 | 1.7 | 5.2 | 0.00 | 0.00 | 0.00 | 40 | 1018.2 |
| 20260506005504 | 63 | 235 | 2.6 | 4.3 | 0.00 | 0.00 | 0.00 | 40 | 1018.2 |
| 20260506003504 | 65 | 242 | 4.3 | 17.4 | 0.00 | 0.00 | 0.00 | 37 | 1017.9 |
| 20260506003005 | 65 | 190 | 4.3 | 7.8 | 0.00 | 0.00 | 0.00 | 38 | 1018.1 |
| 20260506002503 | 64 | 218 | 2.6 | 6.1 | 0.00 | 0.00 | 0.00 | 38 | 1018.0 |
| 20260506001503 | 64 | 248 | 3.5 | 8.7 | 0.00 | 0.00 | 0.00 | 38 | 1018.0 |
| 20260506000503 | 64 | 217 | 4.3 | 7.8 | 0.00 | 0.00 | 0.00 | 38 | 1018.0 |
| 20260506000004 | 64 | 240 | 5.2 | 8.7 | 0.00 | 0.00 | 0.00 | 39 | 1018.1 |
| 20260505235503 | 64 | 256 | 6.1 | 10.4 | 0.00 | 0.00 | 0.00 | 39 | 1018.1 |
| 20260505235003 | 64 | 241 | 2.6 | 7.8 | 0.00 | 0.00 | 0.00 | 39 | 1018.1 |
| 20260505234503 | 64 | 219 | 3.5 | 7.8 | 0.00 | 0.00 | 0.00 | 39 | 1018.0 |
| 20260505234004 | 64 | 206 | 2.6 | 6.1 | 0.00 | 0.00 | 0.00 | 38 | 1018.0 |
| 20260505233005 | 64 | 189 | 2.6 | 7.8 | 0.00 | 0.00 | 0.00 | 38 | 1018.0 |
| 20260505232504 | 64 | 209 | 2.6 | 10.4 | 0.00 | 0.00 | 0.00 | 38 | 1018.0 |
| 20260505232004 | 64 | 2 | 0.9 | 5.2 | 0.00 | 0.00 | 0.00 | 39 | 1018.1 |
| 20260505231504 | 63 | 149 | 0.9 | 2.6 | 0.00 | 0.00 | 0.00 | 39 | 1018.0 |
| 20260505231004 | 63 | 146 | 1.7 | 6.1 | 0.00 | 0.00 | 0.00 | 39 | 1018.0 |
| 20260505230504 | 63 | 171 | 1.7 | 6.1 | 0.00 | 0.00 | 0.00 | 39 | 1018.0 |
| 20260505230004 | 64 | 218 | 2.6 | 7.0 | 0.00 | 0.00 | 0.00 | 38 | 1018.0 |
| 20260505225504 | 64 | 187 | 0.9 | 4.3 | 0.00 | 0.00 | 0.00 | 39 | 1018.2 |
| 20260505225003 | 64 | 200 | 0.9 | 4.3 | 0.00 | 0.00 | 0.00 | 38 | 1018.1 |
| 20260505224504 | 64 | 239 | 2.6 | 5.2 | 0.00 | 0.00 | 0.00 | 37 | 1018.2 |
| 20260505224004 | 64 | 223 | 1.7 | 10.4 | 0.00 | 0.00 | 0.00 | 38 | 1018.2 |
| 20260505223505 | 64 | 173 | 0.9 | 5.2 | 0.00 | 0.00 | 0.00 | 37 | 1018.3 |
| 20260505223003 | 65 | 188 | 2.6 | 7.8 | 0.00 | 0.00 | 0.00 | 37 | 1018.3 |
| 20260505222503 | 65 | 216 | 3.5 | 6.1 | 0.00 | 0.00 | 0.00 | 37 | 1018.3 |
| 20260505222004 | 65 | 295 | 3.5 | 8.7 | 0.00 | 0.00 | 0.00 | 37 | 1018.2 |
| 20260505221004 | 64 | 187 | 0.9 | 6.1 | 0.00 | 0.00 | 0.00 | 38 | 1018.4 |
| 20260505220504 | 63 | 232 | 3.5 | 8.7 | 0.00 | 0.00 | 0.00 | 38 | 1018.5 |
| 20260505220003 | 63 | 243 | 2.6 | 6.1 | 0.00 | 0.00 | 0.00 | 38 | 1018.5 |
| 20260505215504 | 63 | 151 | 4.3 | 7.0 | 0.00 | 0.00 | 0.00 | 38 | 1018.5 |
| 20260505215003 | 63 | 14 | 0.9 | 4.3 | 0.00 | 0.00 | 0.00 | 39 | 1018.5 |
| 20260505214503 | 62 | 53 | 0.9 | 4.3 | 0.00 | 0.00 | 0.00 | 40 | 1018.6 |
| 20260505214003 | 62 | 192 | 1.7 | 6.1 | 0.00 | 0.00 | 0.00 | 40 | 1018.7 |
| 20260505213005 | 62 | 151 | 2.6 | 7.8 | 0.00 | 0.00 | 0.00 | 40 | 1018.9 |
| 20260505212503 | 62 | 192 | 2.6 | 7.8 | 0.00 | 0.00 | 0.00 | 41 | 1018.9 |
| 20260505211004 | 62 | 276 | 0.9 | 5.2 | 0.00 | 0.00 | 0.00 | 40 | 1019.1 |
| 20260505210504 | 62 | 297 | 2.6 | 10.4 | 0.00 | 0.00 | 0.00 | 40 | 1019.0 |
| 20260505210004 | 62 | 192 | 2.6 | 10.4 | 0.00 | 0.00 | 0.00 | 40 | 1019.1 |
| 20260505205503 | 63 | 144 | 0.9 | 7.0 | 0.00 | 0.00 | 0.00 | 41 | 1019.1 |
| 20260505205004 | 62 | 154 | 2.6 | 7.0 | 0.00 | 0.00 | 0.00 | 41 | 1019.0 |
| 20260505204003 | 62 | 237 | 4.3 | 7.0 | 0.00 | 0.00 | 0.00 | 41 | 1018.9 |
| 20260505203504 | 61 | 271 | 0.9 | 6.1 | 0.00 | 0.00 | 0.00 | 42 | 1018.9 |
| 20260505203003 | 61 | 278 | 5.2 | 7.8 | 0.00 | 0.00 | 0.00 | 42 | 1018.8 |
| 20260505202503 | 61 | 247 | 2.6 | 6.1 | 0.00 | 0.00 | 0.00 | 42 | 1019.1 |
| 20260505202004 | 61 | 187 | 3.5 | 6.1 | 0.00 | 0.00 | 0.00 | 43 | 1019.2 |
| 20260505201004 | 61 | 271 | 0.9 | 6.1 | 0.00 | 0.00 | 0.00 | 42 | 1019.3 |
| 20260505200504 | 60 | 243 | 0.0 | 2.6 | 0.00 | 0.00 | 0.00 | 42 | 1019.3 |
| 20260505195504 | 60 | 248 | 0.0 | 6.1 | 0.00 | 0.00 | 0.00 | 42 | 1019.4 |
| 20260505195004 | 61 | 332 | 1.7 | 4.3 | 0.00 | 0.00 | 0.00 | 42 | 1019.4 |
| 20260505194504 | 60 | 358 | 1.7 | 5.2 | 0.00 | 0.00 | 0.00 | 43 | 1019.6 |
| 20260505194003 | 60 | 16 | 1.7 | 2.6 | 0.00 | 0.00 | 0.00 | 43 | 1019.6 |
| 20260505193503 | 60 | 258 | 5.2 | 8.7 | 0.00 | 0.00 | 0.00 | 42 | 1019.5 |
| 20260505193004 | 61 | 298 | 4.3 | 10.4 | 0.00 | 0.00 | 0.00 | 42 | 1019.3 |
| 20260505192504 | 61 | 144 | 1.7 | 10.4 | 0.00 | 0.00 | 0.00 | 42 | 1019.5 |
| 20260505192003 | 61 | 29 | 1.7 | 4.3 | 0.00 | 0.00 | 0.00 | 43 | 1019.5 |
| 20260505191504 | 60 | 319 | 1.7 | 7.0 | 0.00 | 0.00 | 0.00 | 44 | 1019.5 |
| 20260505191004 | 61 | 12 | 4.3 | 7.8 | 0.00 | 0.00 | 0.00 | 43 | 1019.6 |
| 20260505190504 | 61 | 11 | 4.3 | 10.4 | 0.00 | 0.00 | 0.00 | 43 | 1019.5 |
| 20260505190004 | 62 | 12 | 4.3 | 10.4 | 0.00 | 0.00 | 0.00 | 42 | 1019.4 |
| 20260505185503 | 62 | 323 | 3.5 | 7.0 | 0.00 | 0.00 | 0.00 | 42 | 1019.5 |
| 20260505185004 | 62 | 317 | 2.6 | 7.8 | 0.00 | 0.00 | 0.00 | 41 | 1019.5 |
| 20260505184503 | 63 | 29 | 0.9 | 4.3 | 0.00 | 0.00 | 0.00 | 37 | 1019.5 |
| 20260505184003 | 62 | 27 | 0.0 | 1.7 | 0.00 | 0.00 | 0.00 | 37 | 1019.4 |
| 20260505183504 | 62 | 9 | 0.9 | 2.6 | 0.00 | 0.00 | 0.00 | 38 | 1019.4 |
| 20260505183004 | 62 | 79 | 1.7 | 5.2 | 0.00 | 0.00 | 0.00 | 38 | 1019.4 |
| 20260505182504 | 62 | 140 | 0.0 | 2.6 | 0.00 | 0.00 | 0.00 | 39 | 1019.4 |
| 20260505182004 | 62 | 139 | 1.7 | 2.6 | 0.00 | 0.00 | 0.00 | 39 | 1019.4 |
| 20260505181504 | 61 | 116 | 0.9 | 2.6 | 0.00 | 0.00 | 0.00 | 40 | 1019.4 |
| 20260505181004 | 61 | 110 | 1.7 | 7.8 | 0.00 | 0.00 | 0.00 | 41 | 1019.4 |
| 20260505180504 | 60 | 8 | 2.6 | 6.1 | 0.00 | 0.00 | 0.00 | 42 | 1019.3 |
| 20260505180003 | 59 | 79 | 1.7 | 5.2 | 0.00 | 0.00 | 0.00 | 42 | 1019.3 |
| 20260505175504 | 59 | 92 | 1.7 | 4.3 | 0.00 | 0.00 | 0.00 | 43 | 1019.3 |
| 20260505175004 | 59 | 6 | 3.5 | 6.1 | 0.00 | 0.00 | 0.00 | 41 | 1019.2 |
| 20260505174504 | 60 | 16 | 3.5 | 7.0 | 0.00 | 0.00 | 0.00 | 41 | 1019.1 |
| 20260505174003 | 60 | 353 | 1.7 | 4.3 | 0.00 | 0.00 | 0.00 | 41 | 1019.1 |
| 20260505173505 | 61 | 13 | 0.9 | 2.6 | 0.00 | 0.00 | 0.00 | 40 | 1019.1 |
| 20260505173004 | 61 | 32 | 4.3 | 7.0 | 0.00 | 0.00 | 0.00 | 39 | 1019.1 |
| 20260505172003 | 61 | 81 | 2.6 | 6.1 | 0.00 | 0.00 | 0.00 | 41 | 1019.0 |
| 20260505171504 | 60 | 104 | 2.6 | 6.1 | 0.00 | 0.00 | 0.00 | 42 | 1019.0 |
| 20260505171003 | 60 | 93 | 2.6 | 5.2 | 0.00 | 0.00 | 0.00 | 42 | 1019.0 |
| 20260505170004 | 59 | 32 | 1.7 | 4.3 | 0.00 | 0.00 | 0.00 | 43 | 1019.1 |
| 20260505165503 | 58 | 41 | 1.7 | 4.3 | 0.00 | 0.00 | 0.00 | 44 | 1019.0 |
| 20260505165003 | 58 | 106 | 0.9 | 2.6 | 0.00 | 0.00 | 0.00 | 43 | 1019.0 |
| 20260505164504 | 58 | 104 | 0.9 | 2.6 | 0.00 | 0.00 | 0.00 | 43 | 1019.0 |
| 20260505163504 | 59 | 129 | 0.9 | 4.3 | 0.00 | 0.00 | 0.00 | 42 | 1019.0 |
| 20260505163003 | 59 | 133 | 0.9 | 6.1 | 0.00 | 0.00 | 0.00 | 42 | 1019.0 |
| 20260505162504 | 59 | 101 | 0.9 | 2.6 | 0.00 | 0.00 | 0.00 | 44 | 1018.9 |
| 20260505161503 | 58 | 104 | 0.9 | 6.1 | 0.00 | 0.00 | 0.00 | 44 | 1018.8 |
| 20260505161004 | 58 | 83 | 1.7 | 2.6 | 0.00 | 0.00 | 0.00 | 45 | 1018.7 |
| 20260505160504 | 58 | 86 | 0.9 | 2.6 | 0.00 | 0.00 | 0.00 | 45 | 1018.5 |
| 20260505153003 | 57 | 113 | 0.0 | 1.7 | 0.00 | 0.00 | 0.00 | 46 | 1018.5 |
| 20260505152504 | 56 | 115 | 0.9 | 2.6 | 0.00 | 0.00 | 0.00 | 47 | 1018.4 |
| 20260505152003 | 56 | 116 | 0.9 | 2.6 | 0.00 | 0.00 | 0.00 | 48 | 1018.5 |
| 20260505151503 | 56 | 137 | 2.6 | 7.0 | 0.00 | 0.00 | 0.00 | 49 | 1018.3 |
| 20260505150504 | 55 | 139 | 4.3 | 7.0 | 0.00 | 0.00 | 0.00 | 49 | 1018.3 |
| 20260505140503 | 49 | 215 | 0.0 | 0.0 | 0.00 | 0.00 | 0.00 | 54 | 1018.0 |
| 20260505124504 | 43 | 245 | 0.0 | 0.0 | 0.00 | 0.00 | 0.00 | 63 | 1017.6 |
| 20260505124003 | 44 | 245 | 0.0 | 0.0 | 0.00 | 0.00 | 0.00 | 62 | 1017.6 |
| 20260505123504 | 44 | 245 | 0.0 | 0.9 | 0.00 | 0.00 | 0.00 | 61 | 1017.6 |
| 20260505123003 | 44 | 245 | 0.9 | 2.6 | 0.00 | 0.00 | 0.00 | 61 | 1017.6 |
| 20260505122503 | 45 | 242 | 1.7 | 2.6 | 0.00 | 0.00 | 0.00 | 60 | 1017.7 |
| 20260505122003 | 45 | 236 | 1.7 | 4.3 | 0.00 | 0.00 | 0.00 | 61 | 1017.6 |
| 20260505121503 | 45 | 235 | 1.7 | 2.6 | 0.00 | 0.00 | 0.00 | 60 | 1017.6 |
| 20260505121003 | 44 | 234 | 1.7 | 2.6 | 0.00 | 0.00 | 0.00 | 60 | 1017.6 |
| 20260505120504 | 44 | 233 | 1.7 | 4.3 | 0.00 | 0.00 | 0.00 | 60 | 1017.5 |
| 20260505120005 | 43 | 233 | 1.7 | 4.3 | 0.00 | 0.00 | 0.00 | 62 | 1017.6 |
| 20260505115504 | 43 | 235 | 0.0 | 1.7 | 0.00 | 0.00 | 0.00 | 65 | 1017.5 |
| 20260505115004 | 42 | 211 | 0.0 | 0.0 | 0.00 | 0.00 | 0.00 | 65 | 1017.5 |
| 20260505114504 | 41 | 211 | 0.0 | 0.0 | 0.00 | 0.00 | 0.00 | 64 | 1017.5 |
| 20260505114003 | 42 | 211 | 0.0 | 0.0 | 0.00 | 0.00 | 0.00 | 64 | 1017.6 |
| 20260505113503 | 42 | 211 | 0.0 | 0.0 | 0.00 | 0.00 | 0.00 | 63 | 1017.4 |
| 20260505112503 | 42 | 211 | 0.0 | 0.9 | 0.00 | 0.00 | 0.00 | 64 | 1017.5 |
| 20260505112005 | 42 | 211 | 0.0 | 0.0 | 0.00 | 0.00 | 0.00 | 63 | 1017.5 |
| 20260505111503 | 42 | 211 | 0.0 | 0.0 | 0.00 | 0.00 | 0.00 | 63 | 1017.4 |
| 20260505110504 | 42 | 211 | 0.0 | 0.0 | 0.00 | 0.00 | 0.00 | 64 | 1017.4 |
| 20260505102003 | 44 | 232 | 0.0 | 0.0 | 0.00 | 0.00 | 0.00 | 60 | 1017.5 |
| 20260505101504 | 44 | 232 | 0.0 | 0.9 | 0.00 | 0.00 | 0.00 | 61 | 1017.5 |
| 20260505101003 | 45 | 232 | 0.0 | 1.7 | 0.00 | 0.00 | 0.00 | 60 | 1017.6 |
| 20260505100003 | 44 | 237 | 1.7 | 2.6 | 0.00 | 0.00 | 0.00 | 61 | 1017.6 |
| 20260505095504 | 44 | 262 | 0.9 | 1.7 | 0.00 | 0.00 | 0.00 | 63 | 1017.5 |
| 20260505095005 | 44 | 297 | 0.9 | 2.6 | 0.00 | 0.00 | 0.00 | 62 | 1017.6 |
| 20260505094004 | 45 | 214 | 0.9 | 1.7 | 0.00 | 0.00 | 0.00 | 63 | 1017.6 |
| 20260505093505 | 45 | 236 | 0.0 | 0.0 | 0.00 | 0.00 | 0.00 | 62 | 1017.9 |
| 20260505092004 | 45 | 246 | 0.9 | 2.6 | 0.00 | 0.00 | 0.00 | 62 | 1017.9 |
| 20260505091504 | 46 | 221 | 0.9 | 1.7 | 0.00 | 0.00 | 0.00 | 61 | 1017.9 |
| 20260505091003 | 47 | 224 | 0.9 | 1.7 | 0.00 | 0.00 | 0.00 | 60 | 1017.9 |